Date String (YYYY-MM-DD hh:mm:ss) UTC,Instrument flags,absolute air pressure of the measurement (hPa),sample flow rate (lpm),inlet stack bypass flow (lpm),air temperature of the measurement (°C),ambient temperature measured by the external sensor (°C),aerosol sample conditioner tube jacket temperature (°C),OPC LED temperature (°C),internal box temperature (°C),relative humidity of the measurement (%),span deviation,mass concentration of particles derived from Lorenz-Mie calculation of OPC scattering (μg/m³),mass concentration of particles derived from Lorenz-Mie calculation of OPC scattering (μg/m³),mass concentration of particles derived from Lorenz-Mie calculation of OPC scattering (μg/m³)
DateTimeUTC,F1_M11,P_M11,Q1_M11,Q2_M11,T1_M11,T2_M11,T3_M11,T4_M11,T5_M11,U1_M11,ZSPAN_M11,X0_M11,X2_M11,X1_M11
2024-01-28 10:00:00,SystemResetWarning,0836.1,5.00,000.00,021.0,020.1,000.0,029.3,022.4,10.3,0000.0,0006.11,0003.33,0002.95
2024-01-28 10:01:00,SystemResetWarning,0836.1,5.00,000.00,021.0,020.1,000.0,029.3,022.4,10.3,0000.0,0006.33,0003.30,0002.93
2024-01-28 10:02:00,SystemResetWarning,0836.1,5.00,000.00,021.0,020.1,000.0,029.3,022.3,10.1,0000.0,0007.07,0003.31,0002.93
2024-01-28 10:03:00,SystemResetWarning,0836.1,5.00,000.00,021.0,020.1,000.0,029.3,022.3,10.2,0000.0,0006.64,0003.31,0002.97
2024-01-28 10:04:00,SystemResetWarning,0836.1,5.00,000.00,021.0,020.1,000.0,029.3,022.3,10.2,0000.0,0006.80,0003.33,0002.98
2024-01-28 10:05:00,SystemResetWarning,0836.1,5.00,000.00,021.0,020.1,000.0,029.3,022.3,10.2,0000.0,0007.10,0003.34,0002.98
2024-01-28 10:06:00,SystemResetWarning,0836.1,5.00,000.00,021.0,020.1,000.0,029.3,022.3,10.3,0000.0,0006.92,0003.29,0002.93
2024-01-28 10:07:00,SystemResetWarning,0836.1,5.00,000.00,021.0,020.1,000.0,029.3,022.3,10.3,0000.0,0006.83,0003.25,0002.86
2024-01-28 10:08:00,SystemResetWarning,0836.1,5.00,000.00,021.0,020.1,000.0,029.3,022.4,10.3,0000.0,0006.75,0003.21,0002.78
2024-01-28 10:09:00,SystemResetWarning,0836.1,5.00,000.00,021.0,020.1,000.0,029.3,022.4,10.3,0000.0,0006.50,0003.15,0002.70
2024-01-28 10:10:00,SystemResetWarning,0836.1,5.00,000.00,021.0,020.1,000.0,029.3,022.3,10.5,0000.0,0006.77,0003.10,0002.65
2024-01-28 10:11:00,SystemResetWarning,0836.1,5.00,000.00,021.0,020.1,000.0,029.3,022.3,10.5,0000.0,0006.72,0002.99,0002.57
2024-01-28 10:12:00,SystemResetWarning,0836.1,5.01,000.00,021.0,020.1,000.0,029.3,022.4,10.3,0000.0,0006.30,0002.83,0002.45
2024-01-28 10:13:00,SystemResetWarning,0836.0,5.00,000.00,021.0,020.1,000.0,029.3,022.4,10.3,0000.0,0005.04,0002.63,0002.30
2024-01-28 10:14:00,SystemResetWarning,0836.1,5.00,000.00,021.0,020.1,000.0,029.3,022.3,10.3,0000.0,0004.77,0002.41,0002.09
2024-01-28 10:15:00,SystemResetWarning,0836.0,5.01,000.00,021.0,020.1,000.0,029.3,022.3,10.3,0000.0,0004.38,0002.25,0001.94
2024-01-28 10:16:00,SystemResetWarning,0836.1,5.00,000.00,021.0,020.1,000.0,029.3,022.4,10.3,0000.0,0003.33,0002.08,0001.82
2024-01-28 10:17:00,SystemResetWarning,0836.1,5.00,000.00,021.0,020.1,000.0,029.3,022.4,10.3,0000.0,0003.27,0002.03,0001.77
2024-01-28 10:18:00,SystemResetWarning,0836.1,5.00,000.00,021.0,020.1,000.0,029.3,022.3,10.3,0000.0,0003.22,0002.01,0001.75
2024-01-28 10:19:00,SystemResetWarning,0836.1,5.00,000.00,021.0,020.0,000.0,029.3,022.3,10.3,0000.0,0003.22,0002.02,0001.76
2024-01-28 10:20:00,SystemResetWarning,0836.1,4.99,000.00,021.0,020.0,000.0,029.3,022.3,10.3,0000.0,0003.28,0002.04,0001.78
2024-01-28 10:21:00,SystemResetWarning,0836.1,5.00,000.00,021.0,020.1,000.0,029.3,022.3,10.3,0000.0,0003.07,0002.07,0001.79
2024-01-28 10:22:00,SystemResetWarning,0836.1,5.00,000.00,021.0,020.1,000.0,029.3,022.3,10.2,0000.0,0002.87,0002.11,0001.82
2024-01-28 10:23:00,SystemResetWarning,0836.1,5.00,000.00,021.0,020.1,000.0,029.3,022.4,10.3,0000.0,0003.16,0002.28,0001.94
2024-01-28 10:24:00,SystemResetWarning,0836.1,5.00,000.00,021.0,020.1,000.0,029.3,022.4,10.4,0000.0,0003.31,0002.40,0002.04
2024-01-28 10:25:00,SystemResetWarning,0836.1,5.00,000.00,021.0,020.1,000.0,029.3,022.4,10.4,0000.0,0003.52,0002.54,0002.15
2024-01-28 10:26:00,SystemResetWarning,0836.1,5.00,000.00,021.0,020.1,000.0,029.3,022.4,10.4,0000.0,0003.69,0002.69,0002.28
2024-01-28 10:27:00,SystemResetWarning,0836.1,5.00,000.00,021.0,020.1,000.0,029.3,022.3,10.4,0000.0,0005.23,0002.86,0002.43
2024-01-28 10:28:00,SystemResetWarning,0836.1,5.00,000.00,021.0,020.1,000.0,029.3,022.3,10.3,0000.0,0005.92,0003.03,0002.56
2024-01-28 10:29:00,SystemResetWarning,0836.1,5.00,000.00,021.0,020.1,000.0,029.3,022.2,10.3,0000.0,0006.35,0003.15,0002.67
2024-01-28 10:30:00,SystemResetWarning,0836.1,5.00,000.00,020.9,020.0,000.0,029.3,022.2,10.3,0000.0,0006.44,0003.18,0002.72
2024-01-28 10:31:00,SystemResetWarning,0836.1,5.00,000.00,020.9,020.0,000.0,029.3,022.2,10.2,0000.0,0006.54,0003.23,0002.81
2024-01-28 10:32:00,SystemResetWarning,0836.1,5.00,000.00,020.9,020.0,000.0,029.3,022.2,10.2,0000.0,0007.08,0003.28,0002.88
2024-01-28 10:33:00,SystemResetWarning,0836.1,5.00,000.00,020.9,020.0,000.0,029.3,022.2,10.2,0000.0,0007.88,0003.32,0002.95
2024-01-28 10:34:00,SystemResetWarning,0836.1,5.00,000.00,020.9,020.0,000.0,029.3,022.2,10.2,0000.0,0007.88,0003.33,0002.98
2024-01-28 10:35:00,SystemResetWarning,0836.0,5.00,000.00,020.9,020.0,000.0,029.3,022.2,10.1,0000.0,0007.86,0003.32,0002.97
2024-01-28 10:36:00,SystemResetWarning,0835.9,4.99,000.00,020.9,020.0,000.0,029.3,022.2,10.2,0000.0,0007.78,0003.28,0002.92
2024-01-28 10:37:00,SystemResetWarning,0835.9,4.99,000.00,020.9,019.9,000.0,029.2,022.2,10.3,0000.0,0007.71,0003.23,0002.85
2024-01-28 10:38:00,SystemResetWarning,0836.0,5.00,000.00,020.9,019.9,000.0,029.2,022.2,10.3,0000.0,0006.83,0003.21,0002.80
2024-01-28 10:39:00,SystemResetWarning,0836.0,5.01,000.00,020.9,019.9,000.0,029.2,022.2,10.3,0000.0,0006.11,0003.17,0002.75
2024-01-28 10:40:00,SystemResetWarning,0836.0,5.01,000.00,020.9,019.9,000.0,029.2,022.2,10.3,0000.0,0005.94,0003.14,0002.72
2024-01-28 10:41:00,SystemResetWarning,0835.9,5.01,000.00,020.9,019.9,000.0,029.2,022.2,10.3,0000.0,0005.91,0003.13,0002.71
2024-01-28 10:42:00,SystemResetWarning,0835.9,5.00,000.00,020.9,019.9,000.0,029.2,022.2,10.3,0000.0,0005.92,0003.10,0002.68
2024-01-28 10:43:00,SystemResetWarning,0835.9,5.00,000.00,020.9,019.9,000.0,029.2,022.2,10.2,0000.0,0005.63,0003.02,0002.64
2024-01-28 10:44:00,SystemResetWarning,0835.9,5.00,000.00,020.9,019.9,000.0,029.2,022.2,10.4,0000.0,0004.98,0003.04,0002.63
2024-01-28 10:45:00,SystemResetWarning,0835.9,5.00,000.00,020.9,019.9,000.0,029.2,022.2,10.5,0000.0,0004.91,0002.99,0002.60
2024-01-28 10:46:00,SystemResetWarning,0835.9,5.00,000.00,020.8,019.9,000.0,029.2,022.1,10.3,0000.0,0004.96,0002.96,0002.58
2024-01-28 10:47:00,SystemResetWarning,0835.9,5.00,000.00,020.8,019.9,000.0,029.2,022.1,10.2,0000.0,0005.02,0003.00,0002.60
2024-01-28 10:48:00,SystemResetWarning,0835.9,5.00,000.00,020.8,019.9,000.0,029.2,022.1,10.1,0000.0,0004.95,0002.98,0002.61
2024-01-28 10:49:00,SystemResetWarning,0836.0,5.00,000.00,020.8,019.9,000.0,029.2,022.1,10.1,0000.0,0004.85,0002.88,0002.55
2024-01-28 10:50:00,SystemResetWarning,0835.9,5.00,000.00,020.8,019.9,000.0,029.2,022.1,10.1,0000.0,0004.88,0002.84,0002.50
2024-01-28 10:51:00,SystemResetWarning,0836.0,5.00,000.00,020.8,019.9,000.0,029.2,022.1,10.3,0000.0,0005.19,0002.76,0002.43
2024-01-28 10:52:00,SystemResetWarning,0835.9,5.00,000.00,020.8,019.9,000.0,029.1,022.0,10.3,0000.0,0005.52,0002.69,0002.34
2024-01-28 10:53:00,SystemResetWarning,0835.9,5.00,000.00,020.8,019.8,000.0,029.1,022.0,10.3,0000.0,0005.68,0002.62,0002.28
2024-01-28 10:54:00,SystemResetWarning,0835.9,5.00,000.00,020.7,019.8,000.0,029.1,022.0,10.3,0000.0,0006.97,0002.62,0002.27
2024-01-28 10:55:00,SystemResetWarning,0835.9,5.00,000.00,020.7,019.8,000.0,029.1,022.0,10.3,0000.0,0006.30,0002.61,0002.28
2024-01-28 10:56:00,SystemResetWarning,0835.9,5.00,000.00,020.7,019.7,000.0,029.1,022.0,10.3,0000.0,0006.17,0002.57,0002.26
2024-01-28 10:57:00,SystemResetWarning,0835.9,5.00,000.00,020.7,019.7,000.0,029.1,022.0,10.3,0000.0,0006.33,0002.65,0002.32
2024-01-28 10:58:00,SystemResetWarning,0835.9,5.00,000.00,020.7,019.7,000.0,029.1,022.0,10.2,0000.0,0006.38,0002.72,0002.37
2024-01-28 10:59:00,SystemResetWarning,0835.9,5.00,000.00,020.7,019.7,000.0,029.1,022.0,10.2,0000.0,0006.62,0002.84,0002.41
